JBU963 KISP-KPBI

Flight info

Callsign JBU963
Flight time N/A
Altitude 36000
Route BEADS EMJAY Q167 ZJAAY Q97 KENLL CPTAN3
Aircraft A320/M-SDE3FGHIRWY/LB1

Departure

Time N/A
Airport Long Island MacArthur Airport (KISP)

Arrival

Time 2026-04-29 18:24
Airport Palm Beach International Airport (KPBI)
Time Latitude Longitude Altitude Speed Heading
2026-04-29 18:00 28.52720 -80.69343 36123 ft 479 kts 161°
2026-04-29 18:01 28.49611 -80.68039 35973 ft 475 kts 161°
2026-04-29 18:01 28.46514 -80.66774 35403 ft 474 kts 162°
2026-04-29 18:01 28.44450 -80.65946 34988 ft 472 kts 162°
2026-04-29 18:01 28.41355 -80.64713 34364 ft 471 kts 162°
2026-04-29 18:02 28.38542 -80.63595 33793 ft 470 kts 161°
2026-04-29 18:02 28.35512 -80.62389 33182 ft 468 kts 161°
2026-04-29 18:02 28.32497 -80.61181 32565 ft 467 kts 161°
2026-04-29 18:02 28.29392 -80.59927 31920 ft 465 kts 161°
2026-04-29 18:03 28.26352 -80.58693 31302 ft 463 kts 162°
2026-04-29 18:03 28.23330 -80.57464 30686 ft 460 kts 162°
2026-04-29 18:03 28.20324 -80.56245 30055 ft 458 kts 162°
2026-04-29 18:03 28.17328 -80.55036 29429 ft 455 kts 162°
2026-04-29 18:04 28.14354 -80.53838 28802 ft 452 kts 162°
2026-04-29 18:04 28.11393 -80.52649 28174 ft 450 kts 162°
2026-04-29 18:04 28.08453 -80.51468 27548 ft 447 kts 162°
2026-04-29 18:04 28.05530 -80.50293 26921 ft 444 kts 162°
2026-04-29 18:05 28.02635 -80.49127 26295 ft 441 kts 162°
2026-04-29 18:05 27.99749 -80.47966 25665 ft 438 kts 162°
2026-04-29 18:05 27.96887 -80.46818 25040 ft 435 kts 162°
2026-04-29 18:05 27.94037 -80.45676 24413 ft 433 kts 163°
2026-04-29 18:06 27.91208 -80.44543 23788 ft 431 kts 163°
2026-04-29 18:06 27.88391 -80.43415 23157 ft 429 kts 163°
2026-04-29 18:06 27.85582 -80.42292 22530 ft 427 kts 163°
2026-04-29 18:06 27.82783 -80.41172 21909 ft 426 kts 163°
2026-04-29 18:07 27.79993 -80.40051 21281 ft 425 kts 162°
2026-04-29 18:07 27.77208 -80.38931 20648 ft 425 kts 162°
2026-04-29 18:07 27.74420 -80.37812 20031 ft 425 kts 162°
2026-04-29 18:07 27.71631 -80.36697 19400 ft 425 kts 162°
2026-04-29 18:08 27.68842 -80.35582 18775 ft 425 kts 162°
2026-04-29 18:08 27.66066 -80.34431 18235 ft 424 kts 158°
2026-04-29 18:08 27.63434 -80.33030 18044 ft 411 kts 156°
2026-04-29 18:08 27.60904 -80.31687 18067 ft 393 kts 156°
2026-04-29 18:09 27.58478 -80.30410 18071 ft 378 kts 156°
2026-04-29 18:09 27.56104 -80.29166 18073 ft 375 kts 156°
2026-04-29 18:09 27.53742 -80.27929 18072 ft 374 kts 156°
2026-04-29 18:09 27.51385 -80.26691 18072 ft 374 kts 156°
2026-04-29 18:10 27.49028 -80.25455 18071 ft 374 kts 156°
2026-04-29 18:10 27.46670 -80.24218 18073 ft 374 kts 156°
2026-04-29 18:10 27.44310 -80.22983 18072 ft 374 kts 156°
2026-04-29 18:10 27.41920 -80.21731 18072 ft 373 kts 156°
2026-04-29 18:11 27.39714 -80.20568 18073 ft 373 kts 156°
2026-04-29 18:11 27.37374 -80.19330 18011 ft 374 kts 156°
2026-04-29 18:11 27.35002 -80.18077 17476 ft 375 kts 156°
2026-04-29 18:11 27.32638 -80.16832 16926 ft 376 kts 156°
2026-04-29 18:12 27.30259 -80.15583 16375 ft 377 kts 156°
2026-04-29 18:12 27.27887 -80.14338 15819 ft 377 kts 156°
2026-04-29 18:12 27.25511 -80.13089 15271 ft 377 kts 156°
2026-04-29 18:12 27.23124 -80.11873 14720 ft 377 kts 157°
2026-04-29 18:13 27.20724 -80.10701 14185 ft 375 kts 158°
2026-04-29 18:13 27.18354 -80.09568 13560 ft 366 kts 158°
2026-04-29 18:13 27.16034 -80.08466 12858 ft 358 kts 158°
2026-04-29 18:13 27.13768 -80.07385 12157 ft 350 kts 158°
2026-04-29 18:14 27.11552 -80.06315 11463 ft 345 kts 157°
2026-04-29 18:14 27.09374 -80.05245 10768 ft 338 kts 157°
2026-04-29 18:14 27.07241 -80.04185 10072 ft 333 kts 156°
2026-04-29 18:14 27.05146 -80.03142 9366 ft 327 kts 156°
2026-04-29 18:15 27.03086 -80.02121 8670 ft 321 kts 156°
2026-04-29 18:15 27.01066 -80.01119 7987 ft 315 kts 157°
2026-04-29 18:15 26.99081 -80.00133 7287 ft 310 kts 157°
2026-04-29 18:15 26.97101 -79.99308 6582 ft 304 kts 169°
2026-04-29 18:16 26.95021 -79.99264 5894 ft 298 kts 191°
2026-04-29 18:16 26.93113 -80.00072 5193 ft 292 kts 213°
2026-04-29 18:16 26.91497 -80.01418 4495 ft 288 kts 217°
2026-04-29 18:16 26.89930 -80.02774 4067 ft 276 kts 217°
2026-04-29 18:17 26.88473 -80.04032 3964 ft 253 kts 217°
2026-04-29 18:17 26.87109 -80.05208 3977 ft 246 kts 217°
2026-04-29 18:17 26.85754 -80.06376 3972 ft 245 kts 217°
2026-04-29 18:17 26.84403 -80.07538 3973 ft 245 kts 217°
2026-04-29 18:18 26.83057 -80.08702 3979 ft 245 kts 217°
2026-04-29 18:18 26.81714 -80.09880 3982 ft 246 kts 220°
2026-04-29 18:18 26.80635 -80.11383 3982 ft 242 kts 243°
2026-04-29 18:18 26.80121 -80.13085 3748 ft 234 kts 255°
2026-04-29 18:19 26.79726 -80.14861 3348 ft 228 kts 255°
2026-04-29 18:19 26.79358 -80.16546 3054 ft 218 kts 255°
2026-04-29 18:19 26.79015 -80.18133 2980 ft 202 kts 255°
2026-04-29 18:19 26.78693 -80.19606 2971 ft 190 kts 255°
2026-04-29 18:20 26.78242 -80.20964 2836 ft 184 kts 236°
2026-04-29 18:20 26.77386 -80.21983 2672 ft 180 kts 210°
2026-04-29 18:20 26.76234 -80.22483 2526 ft 178 kts 187°
2026-04-29 18:20 26.75018 -80.22408 2399 ft 176 kts 160°
2026-04-29 18:21 26.73969 -80.21738 2273 ft 174 kts 137°
2026-04-29 18:21 26.73085 -80.20808 2165 ft 174 kts 136°
2026-04-29 18:21 26.72205 -80.19864 2069 ft 174 kts 135°
2026-04-29 18:21 26.71342 -80.18923 1926 ft 172 kts 135°
2026-04-29 18:22 26.70510 -80.17987 1751 ft 167 kts 131°
2026-04-29 18:22 26.69862 -80.16963 1522 ft 158 kts 115°
2026-04-29 18:22 26.69396 -80.15889 1297 ft 149 kts 115°
2026-04-29 18:22 26.68965 -80.14905 1118 ft 133 kts 115°
2026-04-29 18:23 26.68599 -80.13974 815 ft 131 kts 108°
2026-04-29 18:23 26.68410 -80.12975 508 ft 132 kts 97°
2026-04-29 18:23 26.68352 -80.11934 320 ft 135 kts 90°
2026-04-29 18:23 26.68323 -80.10895 140 ft 132 kts 93°
2026-04-29 18:24 26.68278 -80.09897 28 ft 119 kts 92°
2026-04-29 18:24 26.68252 -80.09234 26 ft 43 kts 92°
2026-04-29 18:24 26.68243 -80.08986 29 ft 27 kts 92°
2026-04-29 18:24 26.68266 -80.08858 26 ft 17 kts 32°
2026-04-29 18:25 26.68342 -80.08873 26 ft 10 kts 298°
2026-04-29 18:25 26.68348 -80.08962 26 ft 13 kts 271°
2026-04-29 18:25 26.68353 -80.09068 26 ft 12 kts 276°
2026-04-29 18:25 26.68412 -80.09105 29 ft 12 kts 13°
2026-04-29 18:26 26.68449 -80.09030 26 ft 13 kts 92°
2026-04-29 18:26 26.68445 -80.08931 26 ft 13 kts 92°
2026-04-29 18:26 26.68447 -80.08887 29 ft 2 kts 63°
2026-04-29 18:26 26.68472 -80.08877 26 ft 6 kts 347°
2026-04-29 18:27 26.68514 -80.08888 30 ft 4 kts 347°
2026-04-29 18:27 26.68523 -80.08891 26 ft 0 kts 347°